Content
SEND FEEDBACK

Daily
Averages
Monthly
Summary
United States of America

NEW YORK - CENTRAL PARK, NEW YORK


Home > North America > United States > New York
Elevation: 14 feet     Latitude: 40 47N     Longitude: 073 58W

WEATHER
 
SELECT A DAY
Number of Records: 148,358;   Date Range: 11/1/95 - 9/20/14
 
SHARE

PRINT THIS DATA

[ ← Previous Day ]
WEATHER ALMANAC - JUNE 28, 2013
[ Next Day → ]
[ °C ]   °F
We're sorry. There is no daily almanac available for New York - Central Park, New York on June 28, 2013.
WEATHER BY HOUR - JUNE 28, 2013
[ °C ]   °F
Local TimeTemperatureDewpointHumidityBarometerVisibilityWind DirectionWind SpeedGust SpeedPrecipitationEventsConditions
12:51 AM73.0 °F71.1 °F93 %29.56 in5.0 miSW (220°)8.1 mph0.01 inPartly Cloudy
1:51 AM73.0 °F71.1 °F93 %29.55 in6.0 miCalmPartly Cloudy
2:51 AM73.9 °F70.0 °F87 %29.55 in8.0 miVariable3.5 mphOvercast
3:21 AM73.0 °F70.0 °F90 %29.57 in9.0 miVariable5.8 mphOvercast
3:51 AM73.9 °F70.0 °F87 %29.54 in9.0 miVariable5.8 mphOvercast
4:17 AM73.9 °F70.0 °F87 %29.56 in10.0 miVariable6.9 mphScattered Clouds
4:51 AM73.0 °F70.0 °F90 %29.53 in10.0 miVariable6.9 mphMostly Cloudy
5:12 AM73.0 °F70.0 °F90 %29.56 in9.0 miVariable3.5 mphScattered Clouds
5:51 AM73.0 °F70.0 °F90 %29.54 in10.0 miWSW (250°)8.1 mphMostly Cloudy
6:01 AM73.0 °F70.0 °F90 %29.56 in8.0 miNorthMostly Cloudy
6:42 AM73.9 °F70.0 °F87 %29.57 in9.0 miVariable5.8 mphMostly Cloudy
6:51 AM73.9 °F69.1 °F85 %29.55 in9.0 miVariable6.9 mphOvercast
7:28 AM73.9 °F69.1 °F85 %29.58 in9.0 miVariable3.5 mphScattered Clouds
7:51 AM73.9 °F70.0 °F87 %29.54 in8.0 miNorthMostly Cloudy
8:51 AM75.9 °F69.1 °F79 %29.53 in8.0 miVariable4.6 mphOvercast
9:51 AM77.0 °F69.1 °F76 %29.51 in9.0 miCalmMostly Cloudy
10:51 AM77.0 °F69.1 °F76 %29.52 in9.0 miVariable6.9 mphOvercast
11:39 AM79.0 °F69.1 °F72 %29.55 in9.0 miWSW (250°)8.1 mphMostly Cloudy
11:48 AM80.6 °F69.8 °F70 %29.55 in9.0 miCalmMostly Cloudy
11:51 AM82.0 °F70.0 °F67 %29.53 in9.0 miVariable4.6 mphMostly Cloudy
12:51 PM82.9 °F69.1 °F63 %29.52 in10.0 miVariable4.6 mphScattered Clouds
1:51 PM84.2 °F68.0 °F58 %29.51 in10.0 miVariable4.6 mphMostly Cloudy
2:51 PM84.0 °F66.9 °F56 %29.51 in10.0 miWest (260°)9.2 mphPartly Cloudy
3:51 PM82.9 °F69.1 °F63 %29.49 in10.0 miVariable6.9 mphPartly Cloudy
4:51 PM82.0 °F68.0 °F62 %29.48 in9.0 miVariable4.6 mphClear
5:51 PM82.0 °F66.0 °F58 %29.48 in10.0 miWSW (250°)4.6 mphClear
6:51 PM82.0 °F68.0 °F62 %29.50 in9.0 miVariable3.5 mphClear
7:51 PM79.0 °F68.0 °F69 %29.48 in7.0 miVariable5.8 mphPartly Cloudy
8:51 PM78.1 °F68.0 °F71 %29.51 in10.0 miNorth0.00 inClear
9:51 PM77.0 °F64.0 °F64 %29.52 in10.0 miWSW (250°)8.1 mph16.1 mphClear
10:51 PM75.0 °F64.0 °F69 %29.53 in10.0 miWest (260°)5.8 mphClear
11:51 PM75.9 °F63.0 °F64 %29.52 in10.0 miWSW (240°)5.8 mphClear
Hourly data recorded from KNYC, located miles away from New York - Central Park, New York







STORIES FROM OUR PARTNERS